Aérodrome :
LOGIN :

S'inscrire | Disclaimer

   EN    FR    IT 

 










Légende :    VFR   VFR Marginal   IFR   IFR Intensif   IFR Très Intensif
Visi : 
Plafond : 
>= 8 km
>= 3000ft
5 à 8 km
1000 à 3000 ft
1500m à 5 km
500 à 1000 ft
800 à 1500m
200 à 500 ft
< 800m
< 200 ft
Symboles :   Orages  Brouillard  Fortes neiges  Fortes précipitations  Vent > 20 kt
SIGMETs :   Divers  Orages  Givrage  Turbulence  Onde Orograph.  Cendres Volcan.







- Altitude de l'aérodrome : 885 ft
- Code IATA : BAS
- Voir les cartes d'approche


LFSB - Bale-Mulhouse

DERNIER METAR :
  • 170000Z AUTO 22001KT 7000 NSC 06/05 Q1019 NOSIG

METARs EXPIRÉS :
  • 162330Z AUTO 21002KT 7000 NSC 08/07 Q1019 NOSIG
  • 162300Z AUTO VRB02KT CAVOK 08/06 Q1019 NOSIG
  • 162230Z AUTO VRB02KT 8000 NSC 08/06 Q1019 NOSIG
  • 162200Z VRB02KT CAVOK 09/07 Q1019 NOSIG

TAF TAF LFSB
Valide du 17 à 00h jusqu'au 18 à 00h UTC


162300Z 1700/1724 VRB03KT CAVOK
PROB30
TEMPO 1703/1707 4000 MIFG
BECMG 1709/1712 36006KT
Météo : +33 3 89 90 31 11
Pas de NOTAMs connus pour ce terrain.



MET'MAP, la Météo Aéronautique d'un coup d'oeil ! - Copyright ORBIFLY Décembre 2007 - Disclaimer

ORBIFLY MET'MAP TEAM :

Programmation & Développement : Alexandra Zaïnal
Conception & Développement : Baudouin d'Aumeries
Co-Programmation & Développement : Marc-Olivier Méhu
Soutien technique & logistique : Manuel Goepfert

Contact : metmap@orbifly.com




SOURCES & CREDITS :

   NOAA